Location: Bannatyne
(13.0833°N, 59.5333°W)
Time: 00:47:23
(UTC+00:00)

Envisat - Visible Passes

Search period start: 06 December 2019 00:00
Search period end: 16 December 2019 00:00
Orbit: 764 x 766 km, 98.1° (Epoch: 05 December)

Date Brightness Start Highest point End Pass type
(mag) Time Alt. Az. Time Alt. Az. Time Alt. Az.
06 Dec 5.9 23:19:09 10° SW 23:22:15 16° W 23:25:21 10° WNW visible
07 Dec 4.2 22:40:40 10° S 22:45:29 45° W 22:50:19 10° NNW visible
08 Dec 6.2 09:27:56 10° ENE 09:30:33 14° E 09:33:09 10° SE visible
08 Dec 3.0 22:03:47 10° SSE 22:08:47 64° ENE 22:13:48 10° N visible
09 Dec 5.5 23:07:06 10° SSW 23:10:58 22° W 23:14:50 10° NW visible
10 Dec 3.5 22:29:13 10° S 22:34:13 62° WSW 22:39:14 10° NNW visible
11 Dec 3.2 21:52:43 10° SSE 21:57:33 47° ENE 22:02:23 10° N visible
11 Dec 6.3 23:36:02 10° WSW 23:36:28 10° W 23:36:56 10° W visible
12 Dec 5.0 22:55:18 10° SSW 22:59:41 30° W 23:04:05 10° NW visible
13 Dec 5.9 09:40:56 10° NE 09:44:46 22° E 09:48:35 10° SSE visible
13 Dec 3.1 22:17:53 10° S 22:22:58 84° WSW 22:28:02 10° NNW visible
14 Dec 6.0 23:22:30 10° SW 23:25:11 14° W 23:27:52 10° WNW visible
15 Dec 4.4 22:43:41 10° S 22:48:25 40° W 22:53:09 10° NNW visible
